This is the latest recevied weather packets stored in our database for station/object KR0L-13. If no packets are shown the sender has not sent any weather packets the latest 10 day(s).
| Time | Temp. | Humidity | Pressure | Rain* | Wind** | Luminosity | Snow |
|---|---|---|---|---|---|---|---|
| 1787858122 | 32.78° C | 43% | 1019.7 hPa | 0 mm | - | - | - |
| 1787857522 | 32.22° C | 46% | 1019.9 hPa | 0 mm | - | - | - |
| 1787856922 | 32.78° C | 45% | 1020.1 hPa | 0 mm | - | - | - |
| 1787856322 | 32.22° C | 46% | 1020.3 hPa | 0 mm | - | - | - |
| 1787855722 | 31.67° C | 47% | 1020.4 hPa | 0 mm | - | - | - |
| 1787855122 | 32.22° C | 47% | 1020.5 hPa | 0 mm | - | - | - |
| 1787854522 | 31.67° C | 49% | 1020.6 hPa | 0 mm | - | - | - |
| 1787853922 | 31.67° C | 48% | 1020.8 hPa | 0 mm | - | - | - |
| 1787853322 | 31.67° C | 48% | 1020.8 hPa | 0 mm | - | - | - |
| 1787852722 | 31.67° C | 49% | 1021 hPa | 0 mm | - | - | - |
| 1787852122 | 31.11° C | 49% | 1021 hPa | 0 mm | - | - | - |
| 1787851522 | 31.11° C | 48% | 1021.1 hPa | 0 mm | - | - | - |
| 1787850922 | 31.11° C | 49% | 1021.3 hPa | 0 mm | - | - | - |
| 1787850322 | 30.56° C | 49% | 1021.3 hPa | 0 mm | - | - | - |
| 1787849722 | 30° C | 52% | 1021.4 hPa | 0 mm | - | - | - |
| 1787849122 | 30° C | 51% | 1021.4 hPa | 0 mm | - | - | - |
| 1787848522 | 30° C | 51% | 1021.4 hPa | 0 mm | - | - | - |
| 1787847921 | 29.44° C | 54% | 1021.4 hPa | 0 mm | - | - | - |
| 1787847321 | 28.89° C | 53% | 1021.4 hPa | 0 mm | - | - | - |
| 1787846722 | 28.33° C | 56% | 1021.3 hPa | 0 mm | - | - | - |
| 1787846122 | 27.78° C | 56% | 1021.3 hPa | 0 mm | - | - | - |
| 1787845522 | 27.78° C | 56% | 1021.3 hPa | 0 mm | - | - | - |
| 1787844922 | 27.22° C | 58% | 1021.2 hPa | 0 mm | - | - | - |
| 1787844321 | 27.22° C | 59% | 1021.1 hPa | 0 mm | - | - | - |
| 1787843721 | 26.67° C | 59% | 1021.1 hPa | 0 mm | - | - | - |
* Rain latest hour (hover to see other rain measurements)
** Current wind speed in m/s (hover to see current wind gust speed)